Weather History for Flagstaff, AZ

Change the Weather History Date:

Friday, October 7, 2011

  Actual Average Record
Temperature  
Mean Temperature 37 °F 50 °F  
Max Temperature 47 °F 65 °F 80 °F (1965)
Min Temperature 27 °F 34 °F 19 °F (2007)
Degree Days  
Heating Degree Days 28 15  
Month to date heating degree days 118 99  
Since 1 July heating degree days 324 416  
Cooling Degree Days 0 0  
Month to date cooling degree days 0 0  
Year to date cooling degree days 170 117  
Moisture  
Dew Point 27 °F    
Average Humidity 64    
Maximum Humidity 92    
Minimum Humidity 36    
Precipitation  
Precipitation 0.01 in 0.06 in 1.55 in (1924)
Month to date precipitation 1.68 0.42  
Year to date precipitation 16.38 16.99  
Snow  
Snow T in 0.00 in T in (2011)
Month to date snowfall T 0.1  
Since 1 July snowfall T 0.1  
Snow Depth 0.00 in    
Sea Level Pressure  
Sea Level Pressure 29.96 in    
Wind  
Wind Speed 2 mph (SSW)    
Max Wind Speed 14 mph    
Max Gust Speed 16 mph    
Visibility 10 miles    
Events Snow    
T = Trace of Precipitation, MM = Missing Value Source: NWS Daily Summary

Daily Weather History Graph

Daily Weather History Graph

Search for Another Location

Airport:

Trip Planner

Search our weather history database for the weather conditions in past years. The results will help you decide how hot, cold, wet, or windy it might be!

Date:

Astronomy

Oct. 07, 2011 Rise Set
Actual Time 6:26 AM MST 6:02 PM MST
Civil Twilight 6:00 AM MST 6:27 PM MST
Nautical Twilight 5:31 AM MST 6:57 PM MST
Astronomical Twilight 5:01 AM MST 7:26 PM MST
Moon 3:40 PM MST (10/7) 2:26 AM MST (10/7)
Length of Visible Light 12h 27m
Length of Day
11h 36m
Waxing Gibbous, 84% of the Moon is Illuminated
Oct 7
Waxing Gibbous
Oct 11
Full
Oct 19
Last Quarter
Oct 26
New
Nov 2
First Quarter

Hourly Weather History & Observations

Time (MST) Temp. Windchill Dew Point Humidity Pressure Visibility Wind Dir Wind Speed Gust Speed Precip Events Conditions
12:14 AM 33.8 °F - 30.2 °F 87% 29.95 in 10.0 mi Calm Calm - N/A   Mostly Cloudy
12:21 AM 33.8 °F - 30.2 °F 87% 29.95 in 10.0 mi Calm Calm - N/A   Mostly Cloudy
12:57 AM 34.0 °F - 30.9 °F 89% 29.84 in 10.0 mi Calm Calm - N/A   Overcast
1:20 AM 33.8 °F - 30.2 °F 87% 29.96 in 10.0 mi Calm Calm - 0.00 in   Overcast
1:57 AM 33.1 °F - 30.0 °F 89% 29.85 in 10.0 mi Calm Calm - 0.00 in   Mostly Cloudy
2:57 AM 32.0 °F - 28.9 °F 88% 29.84 in 10.0 mi Calm Calm - N/A   Overcast
3:38 AM 32.0 °F - 30.2 °F 93% 29.96 in 10.0 mi Calm Calm - N/A   Overcast
3:52 AM 32.0 °F - 30.2 °F 93% 29.96 in 10.0 mi Calm Calm - N/A   Overcast
3:57 AM 32.0 °F - 30.0 °F 92% 29.85 in 10.0 mi Calm Calm - N/A   Overcast
4:57 AM 30.0 °F - 28.9 °F 96% 29.87 in 10.0 mi Calm Calm - N/A   Scattered Clouds
5:57 AM 28.0 °F - 27.0 °F 96% 29.90 in 10.0 mi Calm Calm - N/A   Clear
6:57 AM 28.0 °F - 27.0 °F 96% 29.92 in 10.0 mi Calm Calm - N/A   Clear
7:57 AM 35.1 °F - 30.0 °F 82% 29.91 in 10.0 mi Calm Calm - N/A   Mostly Cloudy
8:57 AM 37.9 °F - 28.0 °F 68% 29.92 in 10.0 mi Calm Calm - N/A   Scattered Clouds
9:40 AM 39.2 °F - 26.6 °F 61% 30.02 in 10.0 mi Calm Calm - N/A   Mostly Cloudy
9:47 AM 39.2 °F 37.0 °F 26.6 °F 61% 30.02 in 10.0 mi West 3.5 mph - N/A   Scattered Clouds
9:57 AM 37.9 °F - 26.1 °F 62% 29.95 in 10.0 mi Calm Calm - N/A   Partly Cloudy
10:57 AM 42.1 °F 37.1 °F 26.1 °F 53% 29.93 in 10.0 mi SSW 8.1 mph - N/A   Overcast
11:37 AM 35.6 °F 29.2 °F 28.4 °F 75% 30.04 in 8.0 mi SSW 8.1 mph - 0.01 in Snow Light Snow
11:48 AM 35.6 °F 31.7 °F 30.2 °F 81% 30.04 in 8.0 mi SSE 4.6 mph - 0.01 in   Scattered Clouds
11:57 AM 36.0 °F 31.1 °F 30.9 °F 82% 29.98 in 8.0 mi South 5.8 mph - 0.01 in   Partly Cloudy
12:57 PM 39.9 °F 35.8 °F 26.1 °F 58% 29.95 in 10.0 mi East 5.8 mph - 0.00 in   Overcast
1:57 PM 39.9 °F 36.7 °F 30.9 °F 70% 29.95 in 10.0 mi Variable 4.6 mph - 0.00 in   Overcast
2:57 PM 42.1 °F 38.4 °F 28.9 °F 60% 29.96 in 10.0 mi ENE 5.8 mph - N/A   Overcast
3:57 PM 44.1 °F - 25.0 °F 47% 29.95 in 10.0 mi Calm Calm - N/A   Scattered Clouds
4:57 PM 44.1 °F 40.8 °F 19.0 °F 37% 29.98 in 10.0 mi Variable 5.8 mph - N/A   Overcast
5:57 PM 42.1 °F 40.2 °F 18.0 °F 38% 30.01 in 10.0 mi Variable 3.5 mph - N/A   Clear
6:57 PM 37.9 °F 34.4 °F 19.0 °F 47% 30.05 in 10.0 mi NW 4.6 mph - N/A   Clear
7:57 PM 33.1 °F - 21.0 °F 61% 30.05 in 10.0 mi Calm Calm - N/A   Clear
8:57 PM 30.0 °F - 23.0 °F 75% 30.06 in 10.0 mi Calm Calm - N/A   Clear
9:57 PM 28.0 °F - 21.9 °F 78% 30.07 in 10.0 mi Calm Calm - N/A   Clear
10:57 PM 28.0 °F - 21.9 °F 78% 30.05 in 10.0 mi Calm Calm - N/A   Clear
11:57 PM 26.6 °F 21.2 °F 21.2 °F 80% 30.09 in 10.0 mi WSW 4.6 mph - N/A   Clear